Location: Fours
(44.3167°N, 6.7000°E)
Time: 05:52:37
(UTC+00:00)

Cosmos 1606 - Pass Details

Date: 30 November 2020
Orbit: 503 x 527 km, 82.5° (Epoch: 27 January)

Event Time Altitude Azimuth Distance (km) Brightness Sun altitude
Rises 17:03:06 0° 205° (SSW) 2,652 7.0 -11.8°
Reaches altitude 10° 17:05:19 10° 213° (SSW) 1,767 6.2 -12.2°
Maximum altitude 17:08:59 39° 283° (WNW) 798 4.2 -12.8°
Drops below altitude 10° 17:12:40 10° 354° (N) 1,776 5.3 -13.4°
Sets 17:14:55 0° 2° (N) 2,667 6.1 -13.8°
